Time,TemperatureF,DewpointF,PressureIn,WindDirection,WindDirectionDegrees,WindSpeedMPH,WindSpeedGustMPH,Humidity,HourlyPrecipIn,Conditions,Clouds,dailyrainin,SoftwareType,DateUTC
2013-06-11 00:00:00,61.3,60.7,30.00,NE,45,5.0,20.0,98,0.09,,,0.00,LWC V2.10 B1813,2013-06-11 04:00:00,
2013-06-11 00:01:00,62.3,62.3,29.87,North,351,0.0,8.0,100,0.00,,,0.00,LWC V2.10 B1813,2013-06-11 04:01:00,
2013-06-11 00:02:00,62.3,62.3,29.87,North,351,2.0,8.0,100,0.00,,,0.00,LWC V2.10 B1813,2013-06-11 04:02:00,
2013-06-11 00:03:00,62.4,62.4,29.87,NNE,24,2.0,7.0,100,0.00,,,0.00,LWC V2.10 B1813,2013-06-11 04:03:00,
2013-06-11 00:04:00,62.4,62.4,29.87,NNE,24,0.0,7.0,100,0.00,,,0.00,LWC V2.10 B1813,2013-06-11 04:04:00,
2013-06-11 00:09:00,62.4,62.4,29.87,NNE,24,4.0,7.0,100,0.00,,,0.00,LWC V2.10 B1813,2013-06-11 04:09:00,
2013-06-11 00:10:00,61.3,61.0,30.00,NE,45,6.0,15.0,99,0.08,,,0.00,LWC V2.10 B1813,2013-06-11 04:10:00,
2013-06-11 00:20:00,62.4,62.4,29.86,NNE,22,3.0,8.0,100,0.00,,,0.00,LWC V2.10 B1813,2013-06-11 04:20:00,
2013-06-11 00:30:00,62.4,62.4,29.86,NNE,22,2.0,6.0,100,0.00,,,0.00,LWC V2.10 B1813,2013-06-11 04:30:00,
2013-06-11 00:40:00,62.8,62.8,29.85,NNE,22,2.0,7.0,100,0.00,,,0.00,LWC V2.10 B1813,2013-06-11 04:40:00,
2013-06-11 00:50:00,63.3,63.3,29.84,NNE,22,2.0,5.0,100,0.00,,,0.00,LWC V2.10 B1813,2013-06-11 04:50:00,
2013-06-11 01:00:00,63.8,63.8,29.84,NNE,22,1.0,3.0,100,0.00,,,0.00,LWC V2.10 B1813,2013-06-11 05:00:00,
2013-06-11 01:10:00,64.2,64.2,29.83,NNE,22,0.0,2.0,100,0.00,,,0.00,LWC V2.10 B1813,2013-06-11 05:10:00,
2013-06-11 01:20:00,65.0,65.0,29.83,NNE,22,0.0,2.0,100,0.00,,,0.00,LWC V2.10 B1813,2013-06-11 05:20:00,
2013-06-11 01:30:00,66.4,66.4,29.82,South,180,3.0,8.0,100,0.00,,,0.00,LWC V2.10 B1813,2013-06-11 05:30:00,
2013-06-11 01:40:00,67.0,67.0,29.82,South,180,7.0,13.0,100,0.00,,,0.00,LWC V2.10 B1813,2013-06-11 05:40:00,
2013-06-11 01:50:00,67.0,67.0,29.81,SSE,158,7.0,13.0,100,0.05,,,0.00,LWC V2.10 B1813,2013-06-11 05:50:00,
2013-06-11 02:00:00,66.9,66.9,29.80,SSE,158,7.0,11.0,100,3.43,,,0.00,LWC V2.10 B1813,2013-06-11 06:00:00,
2013-06-11 02:10:00,67.0,67.0,29.80,SSE,158,10.0,14.0,100,0.06,,,0.00,LWC V2.10 B1813,2013-06-11 06:10:00,
2013-06-11 02:20:00,67.0,67.0,29.79,SSE,158,10.0,17.0,100,0.00,,,0.00,LWC V2.10 B1813,2013-06-11 06:20:00,
2013-06-11 02:30:00,66.6,66.6,29.79,SSE,158,10.0,16.0,100,0.00,,,0.00,LWC V2.10 B1813,2013-06-11 06:30:00,
2013-06-11 02:40:00,66.5,66.5,29.79,SSE,158,10.0,17.0,100,0.00,,,0.00,LWC V2.10 B1813,2013-06-11 06:40:00,
2013-06-11 02:50:00,66.5,66.5,29.78,SSE,158,10.0,18.0,100,0.00,,,0.00,LWC V2.10 B1813,2013-06-11 06:50:00,
2013-06-11 03:00:00,66.6,66.6,29.78,SSE,158,11.0,20.0,100,0.00,,,0.00,LWC V2.10 B1813,2013-06-11 07:00:00,
2013-06-11 03:10:00,66.6,66.6,29.78,SSE,158,13.0,22.0,100,0.00,,,0.00,LWC V2.10 B1813,2013-06-11 07:10:00,
2013-06-11 03:20:00,66.7,66.7,29.77,SSE,158,11.0,19.0,100,0.00,,,0.00,LWC V2.10 B1813,2013-06-11 07:20:00,
2013-06-11 03:30:00,67.0,67.0,29.77,South,180,11.0,20.0,100,0.00,,,0.00,LWC V2.10 B1813,2013-06-11 07:30:00,
2013-06-11 03:40:00,67.1,67.1,29.76,SSE,158,11.0,18.0,100,0.00,,,0.00,LWC V2.10 B1813,2013-06-11 07:40:00,
2013-06-11 03:50:00,67.1,67.1,29.76,SSE,158,9.0,14.0,100,0.00,,,0.00,LWC V2.10 B1813,2013-06-11 07:50:00,
2013-06-11 04:00:00,66.9,66.9,29.75,SSE,158,10.0,17.0,100,0.00,,,0.00,LWC V2.10 B1813,2013-06-11 08:00:00,
2013-06-11 04:10:00,66.6,66.6,29.74,SSE,158,13.0,19.0,100,0.00,,,0.00,LWC V2.10 B1813,2013-06-11 08:10:00,
2013-06-11 04:20:00,66.5,66.5,29.74,SSE,158,13.0,18.0,100,0.00,,,0.00,LWC V2.10 B1813,2013-06-11 08:20:00,
2013-06-11 04:30:00,66.2,66.2,29.74,SSE,158,12.0,18.0,100,0.00,,,0.00,LWC V2.10 B1813,2013-06-11 08:30:00,
2013-06-11 04:40:00,66.0,66.0,29.73,SSE,158,14.0,19.0,100,0.00,,,0.00,LWC V2.10 B1813,2013-06-11 08:40:00,
2013-06-11 04:50:00,66.1,66.1,29.73,SSE,158,15.0,25.0,100,0.00,,,0.00,LWC V2.10 B1813,2013-06-11 08:50:00,
2013-06-11 05:00:00,66.2,66.2,29.73,SSE,158,15.0,23.0,100,0.00,,,0.00,LWC V2.10 B1813,2013-06-11 09:00:00,
2013-06-11 05:10:00,66.3,66.3,29.73,SSE,158,16.0,25.0,100,0.00,,,0.00,LWC V2.10 B1813,2013-06-11 09:10:00,
2013-06-11 05:20:00,66.5,66.5,29.73,SSE,158,15.0,24.0,100,0.00,,,0.00,LWC V2.10 B1813,2013-06-11 09:20:00,
2013-06-11 05:30:00,66.6,66.6,29.72,SSE,158,13.0,22.0,100,0.00,,,0.00,LWC V2.10 B1813,2013-06-11 09:30:00,
2013-06-11 05:40:00,66.6,66.6,29.72,South,180,13.0,23.0,100,0.00,,,0.00,LWC V2.10 B1813,2013-06-11 09:40:00,
2013-06-11 05:50:00,66.5,66.5,29.72,South,180,12.0,19.0,100,0.00,,,0.00,LWC V2.10 B1813,2013-06-11 09:50:00,
2013-06-11 06:05:00,66.4,66.4,29.72,SSE,163,13.0,19.0,100,0.00,,,0.27,LWC V2.10 B1813,2013-06-11 10:05:00,
2013-06-11 06:10:00,66.4,66.4,29.72,SSE,156,12.0,16.0,100,0.00,,,0.27,LWC V2.10 B1813,2013-06-11 10:10:00,
2013-06-11 06:15:00,66.3,66.3,29.72,SSE,161,16.0,18.0,100,0.00,,,0.27,LWC V2.10 B1813,2013-06-11 10:15:00,
2013-06-11 06:21:00,66.2,66.2,29.72,ESE,118,11.0,17.0,100,0.00,,,0.27,LWC V2.10 B1813,2013-06-11 10:21:00,
2013-06-11 06:26:00,66.1,66.1,29.72,SE,130,14.0,18.0,100,0.00,,,0.27,LWC V2.10 B1813,2013-06-11 10:26:00,
2013-06-11 06:31:00,66.0,66.0,29.72,SE,138,11.0,16.0,100,0.00,,,0.27,LWC V2.10 B1813,2013-06-11 10:31:00,
2013-06-11 06:36:00,66.0,66.0,29.72,SE,131,7.0,14.0,100,0.00,,,0.27,LWC V2.10 B1813,2013-06-11 10:36:00,
2013-06-11 06:42:00,66.0,66.0,29.72,SW,225,10.0,16.0,100,0.00,,,0.27,LWC V2.10 B1813,2013-06-11 10:42:00,
2013-06-11 06:47:00,66.0,66.0,29.72,SSW,203,10.0,12.0,100,0.00,,,0.27,LWC V2.10 B1813,2013-06-11 10:47:00,
2013-06-11 06:52:00,66.0,66.0,29.72,SSW,208,11.0,14.0,100,0.00,,,0.27,LWC V2.10 B1813,2013-06-11 10:52:00,
2013-06-11 06:57:00,66.1,66.1,29.72,SSE,159,13.0,17.0,100,0.00,,,0.27,LWC V2.10 B1813,2013-06-11 10:57:00,
2013-06-11 07:03:00,66.0,66.0,29.72,SE,140,9.0,14.0,100,0.00,,,0.27,LWC V2.10 B1813,2013-06-11 11:03:00,
2013-06-11 07:08:00,65.9,65.9,29.72,SSW,200,17.0,18.0,100,0.00,,,0.27,LWC V2.10 B1813,2013-06-11 11:08:00,
2013-06-11 07:13:00,65.9,65.9,29.72,South,172,9.0,15.0,100,0.00,,,0.27,LWC V2.10 B1813,2013-06-11 11:13:00,
2013-06-11 07:18:00,65.9,65.9,29.72,South,169,8.0,16.0,100,0.00,,,0.27,LWC V2.10 B1813,2013-06-11 11:18:00,
2013-06-11 07:24:00,65.9,65.9,29.72,SE,144,12.0,13.0,100,0.00,,,0.27,LWC V2.10 B1813,2013-06-11 11:24:00,
2013-06-11 07:29:00,65.8,65.8,29.72,SSW,194,8.0,17.0,100,0.00,,,0.27,LWC V2.10 B1813,2013-06-11 11:29:00,
2013-06-11 07:34:00,65.8,65.8,29.72,SSE,154,6.0,15.0,100,0.00,,,0.27,LWC V2.10 B1813,2013-06-11 11:34:00,
2013-06-11 07:39:00,65.9,65.9,29.72,South,181,7.0,13.0,100,0.00,,,0.27,LWC V2.10 B1813,2013-06-11 11:39:00,
2013-06-11 07:45:00,65.8,65.8,29.72,SSE,155,10.0,11.0,100,0.00,,,0.27,LWC V2.10 B1813,2013-06-11 11:45:00,
2013-06-11 07:50:00,65.7,65.7,29.72,SSE,147,10.0,12.0,100,0.00,,,0.27,LWC V2.10 B1813,2013-06-11 11:50:00,
2013-06-11 07:55:00,65.6,65.6,29.72,ESE,117,5.0,12.0,100,0.00,,,0.27,LWC V2.10 B1813,2013-06-11 11:55:00,
2013-06-11 08:00:00,65.6,65.6,29.72,SSE,157,5.0,17.0,100,0.00,,,0.27,LWC V2.10 B1813,2013-06-11 12:00:00,
2013-06-11 08:06:00,65.6,65.6,29.72,SSW,194,9.0,13.0,100,0.00,,,0.27,LWC V2.10 B1813,2013-06-11 12:06:00,
2013-06-11 08:11:00,65.7,65.7,29.72,SSW,201,14.0,14.0,100,0.00,,,0.27,LWC V2.10 B1813,2013-06-11 12:11:00,
2013-06-11 08:16:00,65.7,65.7,29.72,SSE,148,11.0,15.0,100,0.00,,,0.27,LWC V2.10 B1813,2013-06-11 12:16:00,
2013-06-11 08:21:00,65.9,65.9,29.72,South,190,6.0,11.0,100,0.00,,,0.27,LWC V2.10 B1813,2013-06-11 12:21:00,
2013-06-11 08:27:00,66.1,66.1,29.72,South,171,9.0,13.0,100,0.00,,,0.27,LWC V2.10 B1813,2013-06-11 12:27:00,
2013-06-11 08:32:00,66.2,66.2,29.72,SE,141,10.0,13.0,100,0.00,,,0.27,LWC V2.10 B1813,2013-06-11 12:32:00,
2013-06-11 08:37:00,66.4,66.4,29.72,South,176,7.0,16.0,100,0.00,,,0.27,LWC V2.10 B1813,2013-06-11 12:37:00,
2013-06-11 08:42:00,66.7,66.7,29.72,SSE,153,10.0,15.0,100,0.00,,,0.27,LWC V2.10 B1813,2013-06-11 12:42:00,
2013-06-11 08:48:00,67.0,67.0,29.71,SSE,161,8.0,13.0,100,0.00,,,0.27,LWC V2.10 B1813,2013-06-11 12:48:00,
2013-06-11 08:53:00,67.1,67.1,29.71,SE,145,6.0,12.0,100,0.00,,,0.27,LWC V2.10 B1813,2013-06-11 12:53:00,
2013-06-11 08:58:00,67.4,67.4,29.71,South,184,6.0,11.0,100,0.00,,,0.27,LWC V2.10 B1813,2013-06-11 12:58:00,
2013-06-11 09:03:00,67.5,67.5,29.71,South,169,12.0,13.0,100,0.00,,,0.27,LWC V2.10 B1813,2013-06-11 13:03:00,
2013-06-11 09:09:00,67.5,67.5,29.71,South,181,10.0,12.0,100,0.00,,,0.27,LWC V2.10 B1813,2013-06-11 13:09:00,
2013-06-11 09:14:00,67.6,67.6,29.71,SSE,156,1.0,7.0,100,0.00,,,0.27,LWC V2.10 B1813,2013-06-11 13:14:00,
2013-06-11 09:19:00,67.8,67.8,29.71,SSE,159,6.0,8.0,100,0.00,,,0.27,LWC V2.10 B1813,2013-06-11 13:19:00,
2013-06-11 09:24:00,68.1,68.1,29.70,SSE,162,4.0,7.0,100,0.00,,,0.27,LWC V2.10 B1813,2013-06-11 13:24:00,
2013-06-11 09:30:00,68.5,68.5,29.70,South,184,9.0,11.0,100,0.00,,,0.27,LWC V2.10 B1813,2013-06-11 13:30:00,
2013-06-11 09:35:00,68.9,68.9,29.70,South,186,4.0,8.0,100,0.00,,,0.27,LWC V2.10 B1813,2013-06-11 13:35:00,
2013-06-11 09:40:00,69.3,69.3,29.70,SSE,161,6.0,9.0,100,0.00,,,0.27,LWC V2.10 B1813,2013-06-11 13:40:00,
2013-06-11 09:45:00,69.5,69.5,29.70,SSW,199,4.0,8.0,100,0.00,,,0.27,LWC V2.10 B1813,2013-06-11 13:45:00,
2013-06-11 09:51:00,69.7,69.7,29.69,South,186,9.0,10.0,100,0.00,,,0.27,LWC V2.10 B1813,2013-06-11 13:51:00,
2013-06-11 09:56:00,69.9,69.6,29.69,SE,146,6.0,11.0,99,0.00,,,0.27,LWC V2.10 B1813,2013-06-11 13:56:00,
2013-06-11 10:02:00,69.9,69.6,29.69,SE,146,9.0,12.0,99,0.00,,,0.27,LWC V2.10 B1813,2013-06-11 14:02:00,
2013-06-11 10:07:00,70.0,69.7,29.69,SE,143,7.0,11.0,99,0.00,,,0.27,LWC V2.10 B1813,2013-06-11 14:07:00,
2013-06-11 10:12:00,70.2,69.6,29.69,SSW,209,7.0,13.0,98,0.00,,,0.27,LWC V2.10 B1813,2013-06-11 14:12:00,
2013-06-11 10:17:00,70.6,70.0,29.69,South,187,5.0,9.0,98,0.00,,,0.27,LWC V2.10 B1813,2013-06-11 14:17:00,
2013-06-11 10:23:00,70.8,69.9,29.69,South,169,12.0,12.0,97,0.00,,,0.27,LWC V2.10 B1813,2013-06-11 14:23:00,
2013-06-11 10:28:00,70.5,69.6,29.69,South,179,10.0,12.0,97,0.00,,,0.27,LWC V2.10 B1813,2013-06-11 14:28:00,
2013-06-11 10:33:00,70.6,69.7,29.69,South,182,7.0,12.0,97,0.00,,,0.27,LWC V2.10 B1813,2013-06-11 14:33:00,
2013-06-11 10:38:00,71.0,69.8,29.69,South,175,9.0,13.0,96,0.00,,,0.27,LWC V2.10 B1813,2013-06-11 14:38:00,
2013-06-11 10:44:00,71.1,69.9,29.69,South,169,8.0,13.0,96,0.00,,,0.27,LWC V2.10 B1813,2013-06-11 14:44:00,
2013-06-11 10:49:00,71.4,69.9,29.69,South,188,11.0,11.0,95,0.00,,,0.27,LWC V2.10 B1813,2013-06-11 14:49:00,
2013-06-11 10:54:00,71.5,70.0,29.69,SSE,167,5.0,12.0,95,0.00,,,0.27,LWC V2.10 B1813,2013-06-11 14:54:00,
2013-06-11 10:59:00,71.5,70.0,29.69,SW,232,4.0,9.0,95,0.00,,,0.27,LWC V2.10 B1813,2013-06-11 14:59:00,
2013-06-11 11:05:00,72.0,70.5,29.69,West,261,4.0,10.0,95,0.00,,,0.27,LWC V2.10 B1813,2013-06-11 15:05:00,
2013-06-11 11:10:00,72.2,70.7,29.69,SW,235,5.0,7.0,95,0.00,,,0.27,LWC V2.10 B1813,2013-06-11 15:10:00,
2013-06-11 11:15:00,72.3,70.5,29.69,SSW,201,1.0,9.0,94,0.00,,,0.27,LWC V2.10 B1813,2013-06-11 15:15:00,
2013-06-11 11:20:00,72.4,70.6,29.69,SSW,212,4.0,7.0,94,0.00,,,0.27,LWC V2.10 B1813,2013-06-11 15:20:00,
2013-06-11 11:26:00,72.3,70.2,29.69,WSW,242,5.0,6.0,93,0.00,,,0.27,LWC V2.10 B1813,2013-06-11 15:26:00,
2013-06-11 11:31:00,72.4,70.3,29.69,SW,236,5.0,6.0,93,0.00,,,0.27,LWC V2.10 B1813,2013-06-11 15:31:00,
2013-06-11 11:36:00,72.5,70.4,29.69,WNW,285,0.0,8.0,93,0.00,,,0.27,LWC V2.10 B1813,2013-06-11 15:36:00,
2013-06-11 11:41:00,73.1,70.9,29.69,WSW,258,3.0,6.0,93,0.00,,,0.27,LWC V2.10 B1813,2013-06-11 15:41:00,
2013-06-11 11:47:00,72.5,70.0,29.69,West,265,3.0,8.0,92,0.00,,,0.27,LWC V2.10 B1813,2013-06-11 15:47:00,
2013-06-11 11:52:00,71.8,69.3,29.69,WSW,250,1.0,7.0,92,0.00,,,0.27,LWC V2.10 B1813,2013-06-11 15:52:00,
2013-06-11 11:57:00,72.0,69.9,29.69,WSW,250,1.0,7.0,93,0.00,,,0.27,LWC V2.10 B1813,2013-06-11 15:57:00,
2013-06-11 12:02:00,72.3,69.8,29.69,WSW,250,5.0,7.0,92,0.00,,,0.27,LWC V2.10 B1813,2013-06-11 16:02:00,
2013-06-11 12:08:00,72.7,70.2,29.69,SW,233,1.0,7.0,92,0.00,,,0.27,LWC V2.10 B1813,2013-06-11 16:08:00,
2013-06-11 12:13:00,73.1,70.3,29.69,WSW,242,5.0,8.0,91,0.00,,,0.27,LWC V2.10 B1813,2013-06-11 16:13:00,
2013-06-11 12:18:00,73.7,70.2,29.68,West,275,6.0,8.0,89,0.00,,,0.27,LWC V2.10 B1813,2013-06-11 16:18:00,
2013-06-11 12:23:00,74.2,70.7,29.68,West,270,2.0,8.0,89,0.00,,,0.27,LWC V2.10 B1813,2013-06-11 16:23:00,
2013-06-11 12:29:00,74.8,71.0,29.68,SSW,196,2.0,3.0,88,0.00,,,0.27,LWC V2.10 B1813,2013-06-11 16:29:00,
2013-06-11 12:34:00,75.0,70.5,29.68,SSE,162,2.0,6.0,86,0.00,,,0.27,LWC V2.10 B1813,2013-06-11 16:34:00,
2013-06-11 12:39:00,74.3,69.8,29.68,SE,143,4.0,6.0,86,0.00,,,0.27,LWC V2.10 B1813,2013-06-11 16:39:00,
2013-06-11 12:44:00,73.7,69.9,29.68,SSE,157,4.0,7.0,88,0.00,,,0.27,LWC V2.10 B1813,2013-06-11 16:44:00,
2013-06-11 12:50:00,73.4,70.0,29.68,SSE,163,5.0,8.0,89,0.00,,,0.27,LWC V2.10 B1813,2013-06-11 16:50:00,
2013-06-11 12:55:00,72.7,69.6,29.68,SSE,168,4.0,5.0,90,0.00,,,0.27,LWC V2.10 B1813,2013-06-11 16:55:00,
2013-06-11 13:01:00,72.1,69.0,29.67,SE,134,1.0,7.0,90,0.00,,,0.27,LWC V2.10 B1813,2013-06-11 17:01:00,
2013-06-11 13:06:00,71.9,69.1,29.67,SSE,161,0.0,6.0,91,0.00,,,0.27,LWC V2.10 B1813,2013-06-11 17:06:00,
2013-06-11 13:11:00,71.9,69.1,29.67,SSE,161,2.0,4.0,91,0.00,,,0.27,LWC V2.10 B1813,2013-06-11 17:11:00,
2013-06-11 13:16:00,71.9,69.1,29.67,SSE,161,0.0,1.0,91,0.00,,,0.27,LWC V2.10 B1813,2013-06-11 17:16:00,
2013-06-11 13:22:00,71.9,69.1,29.67,SSE,161,0.0,0.0,91,0.00,,,0.27,LWC V2.10 B1813,2013-06-11 17:22:00,
2013-06-11 13:27:00,72.0,69.2,29.66,SSE,161,0.0,1.0,91,0.00,,,0.27,LWC V2.10 B1813,2013-06-11 17:27:00,
2013-06-11 13:32:00,72.5,69.7,29.66,SSE,161,0.0,2.0,91,0.00,,,0.27,LWC V2.10 B1813,2013-06-11 17:32:00,
2013-06-11 13:37:00,73.4,70.3,29.65,SSE,161,1.0,2.0,90,0.00,,,0.27,LWC V2.10 B1813,2013-06-11 17:37:00,
2013-06-11 13:43:00,73.8,70.0,29.65,SSE,161,1.0,2.0,88,0.00,,,0.27,LWC V2.10 B1813,2013-06-11 17:43:00,
2013-06-11 13:48:00,74.7,70.6,29.65,SSE,161,0.0,4.0,87,0.00,,,0.27,LWC V2.10 B1813,2013-06-11 17:48:00,
2013-06-11 13:53:00,75.0,70.5,29.65,SSE,163,4.0,9.0,86,0.00,,,0.27,LWC V2.10 B1813,2013-06-11 17:53:00,
2013-06-11 13:58:00,74.9,70.1,29.65,SSE,152,8.0,11.0,85,0.00,,,0.27,LWC V2.10 B1813,2013-06-11 17:58:00,
2013-06-11 14:04:00,74.8,70.0,29.65,South,171,9.0,12.0,85,0.00,,,0.27,LWC V2.10 B1813,2013-06-11 18:04:00,
2013-06-11 14:09:00,74.4,69.2,29.64,SSE,149,6.0,10.0,84,0.00,,,0.27,LWC V2.10 B1813,2013-06-11 18:09:00,
2013-06-11 14:14:00,74.4,69.6,29.64,SSE,155,10.0,11.0,85,0.00,,,0.27,LWC V2.10 B1813,2013-06-11 18:14:00,
2013-06-11 14:19:00,74.7,69.9,29.64,SSE,154,10.0,15.0,85,0.00,,,0.27,LWC V2.10 B1813,2013-06-11 18:19:00,
2013-06-11 14:25:00,74.8,70.0,29.64,SSE,149,10.0,18.0,85,0.00,,,0.27,LWC V2.10 B1813,2013-06-11 18:25:00,
2013-06-11 14:30:00,74.9,69.7,29.64,SSE,163,16.0,18.0,84,0.00,,,0.27,LWC V2.10 B1813,2013-06-11 18:30:00,
2013-06-11 14:35:00,74.9,69.4,29.64,SSE,158,10.0,17.0,83,0.00,,,0.27,LWC V2.10 B1813,2013-06-11 18:35:00,
2013-06-11 14:40:00,74.9,69.4,29.64,SSE,150,11.0,17.0,83,0.00,,,0.27,LWC V2.10 B1813,2013-06-11 18:40:00,
2013-06-11 14:46:00,74.0,69.5,29.63,SE,144,12.0,16.0,86,0.00,,,0.27,LWC V2.10 B1813,2013-06-11 18:46:00,
2013-06-11 14:51:00,74.0,69.5,29.63,SSE,158,11.0,20.0,86,0.00,,,0.27,LWC V2.10 B1813,2013-06-11 18:51:00,
2013-06-11 14:56:00,74.2,69.7,29.63,SSE,167,8.0,13.0,86,0.00,,,0.27,LWC V2.10 B1813,2013-06-11 18:56:00,
2013-06-11 15:01:00,74.4,69.6,29.63,SSE,159,11.0,15.0,85,0.00,,,0.27,LWC V2.10 B1813,2013-06-11 19:01:00,
2013-06-11 15:07:00,74.2,69.4,29.63,South,184,12.0,17.0,85,0.00,,,0.27,LWC V2.10 B1813,2013-06-11 19:07:00,
2013-06-11 15:12:00,73.8,69.3,29.62,SSE,166,10.0,21.0,86,0.00,,,0.27,LWC V2.10 B1813,2013-06-11 19:12:00,
2013-06-11 15:17:00,74.1,69.6,29.62,SSW,192,12.0,16.0,86,0.00,,,0.27,LWC V2.10 B1813,2013-06-11 19:17:00,
2013-06-11 15:22:00,74.2,69.4,29.62,SSE,155,14.0,18.0,85,0.00,,,0.27,LWC V2.10 B1813,2013-06-11 19:22:00,
2013-06-11 15:28:00,74.1,69.3,29.62,SE,136,11.0,17.0,85,0.00,,,0.27,LWC V2.10 B1813,2013-06-11 19:28:00,
2013-06-11 15:33:00,73.5,69.0,29.61,SSE,147,15.0,17.0,86,0.00,,,0.27,LWC V2.10 B1813,2013-06-11 19:33:00,
2013-06-11 15:38:00,73.2,68.8,29.61,SSE,152,15.0,16.0,86,0.00,,,0.27,LWC V2.10 B1813,2013-06-11 19:38:00,
2013-06-11 15:43:00,72.6,68.5,29.61,SSE,153,15.0,15.0,87,0.00,,,0.27,LWC V2.10 B1813,2013-06-11 19:43:00,
2013-06-11 15:49:00,72.6,68.8,29.61,SE,146,13.0,17.0,88,0.00,,,0.27,LWC V2.10 B1813,2013-06-11 19:49:00,
2013-06-11 15:54:00,72.7,68.6,29.61,South,175,11.0,18.0,87,0.00,,,0.27,LWC V2.10 B1813,2013-06-11 19:54:00,
2013-06-11 15:59:00,72.2,68.1,29.60,South,180,10.0,18.0,87,0.00,,,0.27,LWC V2.10 B1813,2013-06-11 19:59:00,
2013-06-11 16:04:00,72.5,68.7,29.60,SSE,164,13.0,15.0,88,0.00,,,0.27,LWC V2.10 B1813,2013-06-11 20:04:00,
2013-06-11 16:10:00,72.7,68.3,29.60,South,184,10.0,17.0,86,0.00,,,0.27,LWC V2.10 B1813,2013-06-11 20:10:00,
2013-06-11 16:15:00,72.2,68.4,29.60,SSE,157,9.0,18.0,88,0.00,,,0.27,LWC V2.10 B1813,2013-06-11 20:15:00,
2013-06-11 16:20:00,71.9,68.1,29.60,SSE,161,13.0,18.0,88,0.00,,,0.27,LWC V2.10 B1813,2013-06-11 20:20:00,
2013-06-11 16:25:00,72.1,68.3,29.60,SSE,157,11.0,17.0,88,0.00,,,0.27,LWC V2.10 B1813,2013-06-11 20:25:00,
2013-06-11 16:31:00,72.4,68.3,29.60,SSE,165,8.0,16.0,87,0.00,,,0.27,LWC V2.10 B1813,2013-06-11 20:31:00,
2013-06-11 16:37:00,73.0,68.6,29.60,SSE,152,13.0,18.0,86,0.00,,,0.27,LWC V2.10 B1813,2013-06-11 20:37:00,
2013-06-11 16:42:00,73.1,68.3,29.60,South,188,18.0,19.0,85,0.00,,,0.27,LWC V2.10 B1813,2013-06-11 20:42:00,
2013-06-11 16:47:00,73.1,68.0,29.59,South,178,11.0,22.0,84,0.00,,,0.27,LWC V2.10 B1813,2013-06-11 20:47:00,
2013-06-11 16:52:00,72.7,67.9,29.60,SE,144,11.0,20.0,85,0.00,,,0.27,LWC V2.10 B1813,2013-06-11 20:52:00,
2013-06-11 16:58:00,71.8,67.7,29.60,SSE,162,17.0,18.0,87,0.00,,,0.27,LWC V2.10 B1813,2013-06-11 20:58:00,
2013-06-11 17:03:00,71.1,67.4,29.60,SSE,150,8.0,16.0,88,0.00,,,0.27,LWC V2.10 B1813,2013-06-11 21:03:00,
2013-06-11 17:09:00,70.6,67.2,29.59,SSW,199,12.0,16.0,89,0.00,,,0.28,LWC V2.10 B1813,2013-06-11 21:09:00,
2013-06-11 17:14:00,70.0,66.9,29.59,South,188,12.0,16.0,90,0.00,,,0.28,LWC V2.10 B1813,2013-06-11 21:14:00,
2013-06-11 17:19:00,69.5,66.8,29.59,SSW,195,8.0,18.0,91,0.07,,,0.29,LWC V2.10 B1813,2013-06-11 21:19:00,
2013-06-11 17:24:00,69.2,66.8,29.59,South,188,12.0,14.0,92,0.07,,,0.29,LWC V2.10 B1813,2013-06-11 21:24:00,
2013-06-11 17:30:00,69.0,66.9,29.59,SSE,158,5.0,15.0,93,0.06,,,0.30,LWC V2.10 B1813,2013-06-11 21:30:00,
2013-06-11 17:35:00,68.9,67.1,29.59,SSE,153,9.0,18.0,94,0.06,,,0.30,LWC V2.10 B1813,2013-06-11 21:35:00,
2013-06-11 17:40:00,68.6,66.8,29.58,SSE,165,15.0,17.0,94,0.05,,,0.31,LWC V2.10 B1813,2013-06-11 21:40:00,
2013-06-11 17:45:00,68.4,66.6,29.58,SSW,201,6.0,14.0,94,0.05,,,0.31,LWC V2.10 B1813,2013-06-11 21:45:00,
2013-06-11 17:51:00,68.6,67.1,29.58,South,182,4.0,9.0,95,0.04,,,0.31,LWC V2.10 B1813,2013-06-11 21:51:00,
2013-06-11 17:56:00,69.1,67.9,29.57,SSW,196,3.0,11.0,96,0.00,,,0.31,LWC V2.10 B1813,2013-06-11 21:56:00,
2013-06-11 18:01:00,69.5,68.0,29.57,South,169,6.0,16.0,95,0.00,,,0.31,LWC V2.10 B1813,2013-06-11 22:01:00,
2013-06-11 18:06:00,69.9,68.4,29.57,ESE,117,8.0,15.0,95,0.00,,,0.31,LWC V2.10 B1813,2013-06-11 22:06:00,
2013-06-11 18:12:00,70.0,68.2,29.57,SSE,156,9.0,12.0,94,0.00,,,0.31,LWC V2.10 B1813,2013-06-11 22:12:00,
2013-06-11 18:17:00,70.2,68.4,29.58,South,178,9.0,12.0,94,0.00,,,0.31,LWC V2.10 B1813,2013-06-11 22:17:00,
2013-06-11 18:22:00,70.5,68.7,29.58,SSE,148,6.0,13.0,94,0.00,,,0.31,LWC V2.10 B1813,2013-06-11 22:22:00,
2013-06-11 18:27:00,70.6,68.5,29.57,South,187,11.0,16.0,93,0.00,,,0.31,LWC V2.10 B1813,2013-06-11 22:27:00,
2013-06-11 18:33:00,70.5,68.4,29.57,SSW,207,5.0,11.0,93,0.00,,,0.31,LWC V2.10 B1813,2013-06-11 22:33:00,
2013-06-11 18:38:00,70.6,68.5,29.57,SSE,158,9.0,14.0,93,0.00,,,0.31,LWC V2.10 B1813,2013-06-11 22:38:00,
2013-06-11 18:43:00,70.7,68.6,29.58,SW,223,8.0,11.0,93,0.00,,,0.31,LWC V2.10 B1813,2013-06-11 22:43:00,
2013-06-11 18:48:00,70.7,68.6,29.58,SSE,147,10.0,16.0,93,0.00,,,0.31,LWC V2.10 B1813,2013-06-11 22:48:00,
2013-06-11 18:54:00,70.7,68.9,29.58,South,180,8.0,11.0,94,0.00,,,0.31,LWC V2.10 B1813,2013-06-11 22:54:00,
2013-06-11 18:59:00,70.7,68.9,29.58,South,171,4.0,9.0,94,0.00,,,0.31,LWC V2.10 B1813,2013-06-11 22:59:00,
2013-06-11 19:04:00,70.7,68.9,29.58,South,181,7.0,12.0,94,0.00,,,0.31,LWC V2.10 B1813,2013-06-11 23:04:00,
2013-06-11 19:09:00,70.6,68.8,29.58,SW,231,6.0,10.0,94,0.00,,,0.31,LWC V2.10 B1813,2013-06-11 23:09:00,
2013-06-11 19:15:00,70.7,68.6,29.58,SSW,211,5.0,12.0,93,0.00,,,0.31,LWC V2.10 B1813,2013-06-11 23:15:00,
2013-06-11 19:20:00,70.7,68.6,29.58,South,182,7.0,15.0,93,0.00,,,0.31,LWC V2.10 B1813,2013-06-11 23:20:00,
2013-06-11 19:25:00,70.7,68.6,29.58,SSW,211,5.0,10.0,93,0.00,,,0.31,LWC V2.10 B1813,2013-06-11 23:25:00,
2013-06-11 19:30:00,70.6,68.5,29.60,South,178,0.0,9.0,93,0.93,,,0.33,LWC V2.10 B1813,2013-06-11 23:30:00,
2013-06-11 19:36:00,70.6,68.8,29.60,WSW,250,6.0,7.0,94,0.27,,,0.38,LWC V2.10 B1813,2013-06-11 23:36:00,
2013-06-11 19:41:00,70.3,68.8,29.59,WSW,251,5.0,5.0,95,0.08,,,0.38,LWC V2.10 B1813,2013-06-11 23:41:00,
2013-06-11 19:46:00,70.0,68.5,29.59,SW,221,3.0,5.0,95,0.05,,,0.38,LWC V2.10 B1813,2013-06-11 23:46:00,
2013-06-11 19:51:00,69.5,68.0,29.59,SW,229,5.0,7.0,95,0.00,,,0.38,LWC V2.10 B1813,2013-06-11 23:51:00,
2013-06-11 19:57:00,69.3,67.8,29.59,WSW,240,4.0,5.0,95,0.00,,,0.38,LWC V2.10 B1813,2013-06-11 23:57:00,
2013-06-11 20:02:00,69.1,67.9,29.59,SW,226,3.0,3.0,96,0.00,,,0.38,LWC V2.10 B1813,2013-06-12 00:02:00,
2013-06-11 20:08:00,69.0,67.8,29.59,WSW,239,0.0,6.0,96,0.00,,,0.38,LWC V2.10 B1813,2013-06-12 00:08:00,
2013-06-11 20:13:00,69.0,67.8,29.59,SW,224,2.0,10.0,96,0.00,,,0.38,LWC V2.10 B1813,2013-06-12 00:13:00,
2013-06-11 20:18:00,69.1,67.9,29.60,SSW,210,6.0,9.0,96,0.00,,,0.38,LWC V2.10 B1813,2013-06-12 00:18:00,
2013-06-11 20:23:00,69.2,67.7,29.60,SSW,213,1.0,8.0,95,0.00,,,0.38,LWC V2.10 B1813,2013-06-12 00:23:00,
2013-06-11 20:29:00,69.4,67.9,29.60,SW,231,3.0,11.0,95,0.00,,,0.38,LWC V2.10 B1813,2013-06-12 00:29:00,
2013-06-11 20:34:00,69.6,68.1,29.60,SW,230,4.0,8.0,95,0.00,,,0.38,LWC V2.10 B1813,2013-06-12 00:34:00,
2013-06-11 20:39:00,69.7,67.9,29.60,South,185,4.0,6.0,94,0.00,,,0.38,LWC V2.10 B1813,2013-06-12 00:39:00,
2013-06-11 20:44:00,69.7,67.9,29.60,SSW,212,4.0,8.0,94,0.00,,,0.38,LWC V2.10 B1813,2013-06-12 00:44:00,
2013-06-11 20:50:00,69.6,67.8,29.60,South,169,0.0,7.0,94,0.00,,,0.38,LWC V2.10 B1813,2013-06-12 00:50:00,
2013-06-11 20:55:00,69.2,67.7,29.61,South,177,6.0,8.0,95,0.00,,,0.38,LWC V2.10 B1813,2013-06-12 00:55:00,
2013-06-11 21:00:00,69.1,67.6,29.61,South,169,4.0,6.0,95,0.00,,,0.38,LWC V2.10 B1813,2013-06-12 01:00:00,
2013-06-11 21:05:00,69.0,67.8,29.61,SSW,196,5.0,6.0,96,0.00,,,0.38,LWC V2.10 B1813,2013-06-12 01:05:00,
2013-06-11 21:11:00,68.9,67.4,29.61,SW,232,7.0,9.0,95,0.00,,,0.38,LWC V2.10 B1813,2013-06-12 01:11:00,
2013-06-11 21:16:00,69.0,67.5,29.61,SW,220,9.0,9.0,95,0.00,,,0.38,LWC V2.10 B1813,2013-06-12 01:16:00,
2013-06-11 21:21:00,69.2,67.1,29.61,SW,227,5.0,14.0,93,0.00,,,0.38,LWC V2.10 B1813,2013-06-12 01:21:00,
2013-06-11 21:26:00,69.3,66.9,29.61,SW,223,7.0,12.0,92,0.00,,,0.38,LWC V2.10 B1813,2013-06-12 01:26:00,
2013-06-11 21:32:00,69.2,66.1,29.61,SW,220,7.0,14.0,90,0.00,,,0.38,LWC V2.10 B1813,2013-06-12 01:32:00,
2013-06-11 21:37:00,69.4,65.7,29.62,SW,230,6.0,15.0,88,0.00,,,0.38,LWC V2.10 B1813,2013-06-12 01:37:00,
2013-06-11 21:42:00,69.5,65.5,29.62,SW,220,7.0,15.0,87,0.00,,,0.38,LWC V2.10 B1813,2013-06-12 01:42:00,
2013-06-11 21:47:00,69.6,65.2,29.62,SW,220,3.0,13.0,86,0.00,,,0.38,LWC V2.10 B1813,2013-06-12 01:47:00,
2013-06-11 21:53:00,69.6,65.2,29.62,SW,227,6.0,13.0,86,0.00,,,0.38,LWC V2.10 B1813,2013-06-12 01:53:00,
2013-06-11 21:58:00,69.7,65.0,29.62,WSW,258,5.0,10.0,85,0.00,,,0.38,LWC V2.10 B1813,2013-06-12 01:58:00,
2013-06-11 22:03:00,69.5,64.8,29.62,SSW,203,6.0,11.0,85,0.00,,,0.38,LWC V2.10 B1813,2013-06-12 02:03:00,
2013-06-11 22:08:00,69.3,64.9,29.63,WSW,254,8.0,8.0,86,0.00,,,0.38,LWC V2.10 B1813,2013-06-12 02:08:00,
2013-06-11 22:14:00,69.1,64.7,29.62,SW,225,5.0,10.0,86,0.00,,,0.38,LWC V2.10 B1813,2013-06-12 02:14:00,
2013-06-11 22:19:00,69.0,64.6,29.63,SW,233,9.0,9.0,86,0.00,,,0.38,LWC V2.10 B1813,2013-06-12 02:19:00,
2013-06-11 22:24:00,69.1,64.7,29.63,South,186,5.0,5.0,86,0.00,,,0.38,LWC V2.10 B1813,2013-06-12 02:24:00,
2013-06-11 22:29:00,69.1,64.7,29.63,SSW,201,3.0,9.0,86,0.00,,,0.38,LWC V2.10 B1813,2013-06-12 02:29:00,
2013-06-11 22:35:00,68.9,64.5,29.63,SW,221,5.0,10.0,86,0.00,,,0.38,LWC V2.10 B1813,2013-06-12 02:35:00,
2013-06-11 22:40:00,68.8,64.4,29.63,West,270,7.0,14.0,86,0.00,,,0.38,LWC V2.10 B1813,2013-06-12 02:40:00,
2013-06-11 22:45:00,69.0,64.3,29.63,WSW,237,9.0,15.0,85,0.00,,,0.38,LWC V2.10 B1813,2013-06-12 02:45:00,
2013-06-11 22:50:00,69.1,64.4,29.63,WSW,238,17.0,17.0,85,0.00,,,0.38,LWC V2.10 B1813,2013-06-12 02:50:00,
2013-06-11 22:56:00,69.4,64.7,29.63,SSE,147,7.0,15.0,85,0.00,,,0.38,LWC V2.10 B1813,2013-06-12 02:56:00,
2013-06-11 23:01:00,69.3,64.2,29.62,SW,217,11.0,13.0,84,0.00,,,0.38,LWC V2.10 B1813,2013-06-12 03:01:00,
2013-06-11 23:07:00,69.3,63.9,29.62,SSW,200,9.0,16.0,83,0.00,,,0.38,LWC V2.10 B1813,2013-06-12 03:07:00,
2013-06-11 23:12:00,69.4,63.7,29.62,WSW,256,9.0,19.0,82,0.00,,,0.38,LWC V2.10 B1813,2013-06-12 03:12:00,
2013-06-11 23:17:00,69.6,63.1,29.62,WSW,250,17.0,26.0,80,0.00,,,0.38,LWC V2.10 B1813,2013-06-12 03:17:00,
2013-06-11 23:22:00,69.5,63.0,29.62,West,273,5.0,18.0,80,0.00,,,0.38,LWC V2.10 B1813,2013-06-12 03:22:00,
2013-06-11 23:28:00,69.5,62.7,29.62,WSW,237,9.0,20.0,79,0.00,,,0.38,LWC V2.10 B1813,2013-06-12 03:28:00,
2013-06-11 23:33:00,69.8,62.3,29.62,West,275,15.0,24.0,77,0.00,,,0.38,LWC V2.10 B1813,2013-06-12 03:33:00,
2013-06-11 23:38:00,69.8,62.3,29.62,WSW,250,18.0,18.0,77,0.00,,,0.38,LWC V2.10 B1813,2013-06-12 03:38:00,
2013-06-11 23:43:00,69.6,62.8,29.62,SW,226,12.0,16.0,79,0.00,,,0.38,LWC V2.10 B1813,2013-06-12 03:43:00,
2013-06-11 23:49:00,69.1,62.7,29.62,WSW,246,10.0,19.0,80,0.00,,,0.38,LWC V2.10 B1813,2013-06-12 03:49:00,
2013-06-11 23:54:00,68.8,62.4,29.63,West,270,9.0,18.0,80,0.00,,,0.38,LWC V2.10 B1813,2013-06-12 03:54:00,
2013-06-11 23:59:00,68.8,62.0,29.63,SSE,159,10.0,16.0,79,0.00,,,0.38,LWC V2.10 B1813,2013-06-12 03:59:00,